Regional Weather Roundup
Issued by NWS Memphis, TN

Home | Current Version | Previous Version | Text Only | Print | Product List | Glossary On
Versions: 1 2 3 4 5 6 7 8 9 10 11 12 13 14 15 16 17 18 19 20 21 22 23 24 25 26 27 28 29 30 31 32 33 34 35 36 37 38 39 40 41 42 43 44 45 46 47 48 49 50
000
ASUS44 KMEG 270710
RWRMEG
MEMPHIS CWA HOURLY WEATHER ROUNDUP
NATIONAL WEATHER SERVICE MEMPHIS TN
200 AM CDT MON MAR 27 2017

...WEST TENNESSEE...

CITY           SKY/WX    TMP DP  RH WIND       PRES   REMARKS
MEMPHIS INTL   CLOUDY    64  54  69 SE5       29.90F
NWS MEMPHIS      N/A     60 N/A N/A MISG        N/A
JACKSON        MOCLDY    55  53  93 CALM      29.93F
SOMERVILLE     PTCLDY    59  52  77 CALM      29.91S
BOLIVAR        CLOUDY    54  50  87 CALM      29.93S
SAVANNAH       CLOUDY    54  54 100 CALM      29.94F
DYERSBURG      CLOUDY    57  54  89 E5        29.92F
PARIS          CLEAR     54  48  82 SE7       29.94F
HUNTINGDON     CLEAR     54  52  94 E3        29.93F


...EASTERN ARKANSAS...

CITY           SKY/WX    TMP DP  RH WIND       PRES   REMARKS
JONESBORO      MOCLDY    57  54  89 E7        29.87F
WEST MEMPHIS   CLOUDY    60  56  86 SE5       29.88F
BATESVILLE     CLOUDY    61  54  77 E5        29.83F
NEWPORT        CLOUDY    63  55  77 SE14        N/A
WALNUT RIDGE   MOCLDY    59  52  77 E10       29.86F
BLYTHEVILLE    MOCLDY    58  55  90 E8        29.90F
SEARCY         CLOUDY    61  57  87 S3        29.85F
STUTTGART      CLOUDY    66  52  59 SE14      29.86F
PINE BLUFF     MOCLDY    69  61  75 S13       29.86F
MONTICELLO     MOCLDY    68  61  78 S7        29.87F


...NORTH MISSISSIPPI...

CITY           SKY/WX    TMP DP  RH WIND       PRES   REMARKS
TUPELO         MOCLDY    59  55  87 S3        29.95S
OXFORD         MOCLDY    63  54  72 S5        29.95S
BATESVILLE     MOCLDY    58  56  94 CALM      29.93S
TUNICA         MOCLDY    61  54  77 SE9       29.90F
CLARKSDALE     MOCLDY    64  59  82 SE9       29.90F
GREENWOOD      MOCLDY    68  62  81 S10       29.94R
COLUMBUS       CLOUDY    65  60  81 S7        29.96S
STARKVILLE     PTCLDY    64  61  88 S7        29.98S
GOLDEN TRIANGL CLOUDY   N/A N/A N/A S7        29.93S


...SOUTHEAST MISSOURI...

CITY           SKY/WX    TMP DP  RH WIND       PRES   REMARKS
KENNETT        MOCLDY    57  55  94 E8        29.89F
MALDEN         CLOUDY    57  52  82 E7        29.91F
WEST PLAINS    CLOUDY    57  50  77 E6        29.85F
POPLAR BLUFF   PTCLDY    53  52  96 E3        29.89F
CAPE GIRARDEAU MOCLDY    50  47  89 E6        29.93F


...NORTHWEST ALABAMA...

CITY           SKY/WX    TMP DP  RH WIND       PRES   REMARKS
MUSCLE SHOALS  PTCLDY    58  55  90 CALM      29.98S


...MIDDLE TENNESSEE...

CITY           SKY/WX    TMP DP  RH WIND       PRES   REMARKS
NASHVILLE      MOCLDY    61  54  77 SE6       29.98S
CLARKSVILLE    CLOUDY    53  49  86 E3        29.96F
COLUMBIA       CLEAR    N/A N/A N/A CALM      29.95F


...WESTERN KENTUCKY...

CITY           SKY/WX    TMP DP  RH WIND       PRES   REMARKS
PADUCAH        CLOUDY    54  49  83 E3        29.94S
FORT CAMPBELL  PTCLDY    53  50  89 CALM      29.96F


...CENTRAL ARKANSAS...

CITY           SKY/WX    TMP DP  RH WIND       PRES   REMARKS
LITTLE ROCK    CLOUDY    66  58  75 S8        29.84S


SKY/WX REPORTED AS FAIR MEANS FEW OR NO CLOUDS BELOW
12 THOUSAND FEET.




USA.gov is the U.S. government's official web portal to all federal, state and local government web resources and services.